Regional Weather Roundup
Issued by NWS Nashville, TN

Home | Current Version | Previous Version | Text Only | Print | Product List | Glossary On
Versions: 1 2 3 4 5 6 7 8 9 10 11 12 13 14 15 16 17 18 19 20 21 22 23 24 25 26 27 28
000
ASUS44 KOHX 261010
RWROHX
MIDDLE TENNESSEE HOURLY WEATHER ROUNDUP
NATIONAL WEATHER SERVICE NASHVILLE TN
500 AM CDT FRI MAY 26 2017

NOTE: "FAIR" INDICATES FEW OR NO CLOUDS BELOW 12,000 FEET WITH
NO SIGNIFICANT WEATHER AND/OR OBSTRUCTIONS TO VISIBILITY.

* THESE REPORTS ARE NOT UNDER NWS QUALITY CONTROL AND MAY NOT
  REPORT WEATHER SUCH AS PRECIPITATION AND FOG.


TNZ005>011-023>034-057-059-062>066-078-080-261100
...NORTHERN MIDDLE TENNESSEE...

CITY           SKY/WX    TMP DP  RH WIND       PRES   REMARKS
CLARKSVILLE    PTCLDY    54  50  86 S3        29.91R
CROSSVILLE     CLEAR     50  48  93 CALM      30.00R
GALLATIN       CLEAR     50  50 100 CALM      29.97R
DICKSON        CLEAR     55  51  86 S6        29.93R
LEBANON        CLEAR     52  51  96 CALM      29.93R
NASHVILLE      CLEAR     54  51  90 S5        29.94S
PORTLAND       CLEAR     55  52  88 S8        29.92S
ROCKWOOD       CLEAR     55  49  80 W6        29.98
SMYRNA         CLEAR     53  51  93 SE5       29.96R
SPARTA         CLEAR     48  48 100 CALM      29.96R
SPRINGFIELD    PTCLDY    57  54  88 S7        29.91S
WEST NASHVILLE CLEAR     55  54  94 CALM      29.91S
$$
TNZ056-058-060-061-075>077-079-093>097-261100
...SOUTHERN MIDDLE TENNESSEE...

CITY           SKY/WX    TMP DP  RH WIND       PRES   REMARKS
COLUMBIA       CLEAR     54  54 100 CALM      29.93R
FAYETTEVILLE   CLEAR     57  52  82 S3        29.97R
MCMINNVILLE    CLEAR     50  50 100 CALM      29.98R
MURFREESBORO   CLEAR     54  51  89 CALM      29.95R
PULASKI        PTCLDY    52  52 100 CALM      29.96R
SHELBYVILLE    CLEAR     52  50  93 E5        29.96S
TULLAHOMA      CLEAR     50  48  93 CALM      29.98R
WINCHESTER     CLEAR     54  50  87 CALM        N/A
$$


...KEY TO REMARKS...
VSB - VISIBILITY IN MILES
WCI - WIND CHILL INDEX
HX  - HEAT INDEX





USA.gov is the U.S. government's official web portal to all federal, state and local government web resources and services.